COSMOS 249 DEB *, 3679

Orbit data source: Space-Track

COSMOS 249 DEB *, 3679 is space debris in LEO originally from a launch on Sun, 20 Oct 1968 UTC launched from the Tyuratam Missile And Space Complex (TTMTR). Debris objects in space refer to the collection of defunct objects orbiting the Earth. Examples of debris include non-operational satellites, rocket bodies, and fragments generated from explosions, collisions, or faulty payload assembly.

Loading next visibility...
Identifier
3679, 1968-091AE
Orbit
LEO
Country
Flag of CISCIS
Related business
Manufacturer
Unknown
Mission
Spacecraft
Bus & Motor
Unknown
Mass
Unknown
Launch date (UTC)
1968-10-20 (57 years ago)
Launch vehicle
Unknown
Launch site
Tyuratam Missile And Space Complex (TTMTR)
Object type
Payload
Rocket body
Debris
Shape & HBR
Unknown shape, 0.1 m
Radar Cross Section
Small (<0.1 m²)

Expand to show TLE details & history
Last TLE update: 1 day ago

TLE from 1 day ago
0 COSMOS 249 DEB *
1 03679U 68091AE  25315.24127192  .00004568  00000-0  11149-2 0  9994
2 03679  62.7490 244.5268 0497552 210.8472 146.2457 13.98517832753924
Epoch: 2025-11-11T05:47Z
TLE epoch observation values (Epoch: 2025-11-11T05:47:25.893Z)
Latitude
-0.00005°
Longitude
107.03824°
Altitude
1,206.974 km
Speed
7.097 km/s
True Right ascension
16h 18m 06s
True Declination
0° 00' 00"
Sunlit
Object was in daylight at epoch
Visualization orbit readout
Latitude
Unknown
Longitude
Unknown
Altitude
Unknown
Speed
Unknown
Apparent Right ascension
Unknown
Apparent Declination
Unknown
Sunlit
N/A
Visualization observer readout
Local Sidereal Time
02:08:53
Azimuth
Unknown
Elevation
Unknown
Doppler factor
Unknown
Orbital elements
Apogee altitude
1,259.826 km
Perigee altitude
535.794 km
Semi-major axis
7,275.947 km
Eccentricity
0.04976
Inclination
62.749°
RAAN
244.5268°
Arg. of periapsis
210.8472°
True anomaly
149.25623°
Mean anomaly
146.2457°
Eccentric anomaly
147.76623°
Mean motion
3.49711 °/min
Orbital period
102.94 mins
BSTAR
0.0011149
Loading maneuver chart data...
Computing Atmospheric mass density...

Documentation

Showing up to 5 results
|